CW3846 Weather Reports


time (UTC)temp
C
wind
direction
speed
KPH
gust
KPH
rain 1hr
cm
rain 24hr
cm
rain mn
cm
humidity
%
barometer
mb
20260502191546 33 0 0.0 1.6 0.00 0.00 0.00 12 1012.5
20260502191030 33 0 0.0 3.2 0.00 0.00 0.00 11 1012.7
20260502190529 32 0 0.0 3.2 0.00 0.00 0.00 12 1012.9
20260502190045 32 0 0.0 3.2 0.00 0.00 0.00 13 1013.0
20260502185530 32 0 0.0 3.2 0.00 0.00 0.00 13 1013.1
20260502185030 32 0 0.0 0.0 0.00 0.00 0.00 13 1013.1
20260502184552 32 0 0.0 1.6 0.00 0.00 0.00 14 1013.2
20260502184031 32 0 0.0 1.6 0.00 0.00 0.00 14 1013.2
20260502183530 32 0 0.0 0.0 0.00 0.00 0.00 15 1013.3
20260502183051 32 0 0.0 1.6 0.00 0.00 0.00 15 1013.3
20260502182531 32 0 0.0 1.6 0.00 0.00 0.00 15 1013.3
20260502182030 32 0 0.0 1.6 0.00 0.00 0.00 15 1013.5
20260502181546 31 0 0.0 1.6 0.00 0.00 0.00 16 1013.6
20260502181031 31 0 0.0 1.6 0.00 0.00 0.00 16 1013.6
20260502180530 31 0 0.0 1.6 0.00 0.00 0.00 16 1013.7
20260502164027 28 0 0.0 0.0 0.00 0.00 0.00 19 1013.9
20260502163533 28 0 0.0 0.0 0.00 0.00 0.00 19 1013.9
20260502163050 28 0 0.0 0.0 0.00 0.00 0.00 20 1013.9
20260502162527 28 0 0.0 0.0 0.00 0.00 0.00 20 1014.0
20260502162034 28 0 0.0 0.0 0.00 0.00 0.00 19 1013.9
20260502161545 28 0 0.0 0.0 0.00 0.00 0.00 21 1014.0
20260502161031 28 0 0.0 0.0 0.00 0.00 0.00 21 1013.9
20260502160531 28 0 0.0 1.6 0.00 0.00 0.00 21 1014.0
20260502152030 26 0 0.0 0.0 0.00 0.00 0.00 23 1013.5
20260502151553 26 0 0.0 0.0 0.00 0.00 0.00 22 1013.5
20260502151030 26 0 0.0 0.0 0.00 0.00 0.00 22 1013.5
20260502150530 25 0 0.0 0.0 0.00 0.00 0.00 23 1013.4
20260502130530 21 0 0.0 0.0 0.00 0.00 0.00 19 1012.2
20260502123529 21 0 0.0 0.0 0.00 0.00 0.00 20 1011.8
20260502123045 21 0 0.0 0.0 0.00 0.00 0.00 20 1011.7
20260502122530 21 0 0.0 0.0 0.00 0.00 0.00 20 1011.7
20260502122035 21 0 0.0 0.0 0.00 0.00 0.00 20 1011.7
20260502121551 21 0 0.0 0.0 0.00 0.00 0.00 20 1011.5
20260502121034 21 0 0.0 1.6 0.00 0.00 0.00 20 1011.5
20260502120531 21 0 0.0 1.6 0.00 0.00 0.00 20 1011.5
20260502115530 21 0 0.0 1.6 0.00 0.00 0.00 19 1011.5
20260502115030 21 0 0.0 1.6 0.00 0.00 0.00 19 1011.5
20260502114602 21 0 0.0 0.0 0.00 0.00 0.00 19 1011.5
20260502114033 22 0 0.0 0.0 0.00 0.00 0.00 20 1011.5
20260502113530 22 0 0.0 0.0 0.00 0.00 0.00 19 1011.4
20260502113048 22 0 0.0 0.0 0.00 0.00 0.00 19 1011.4
20260502112532 22 0 0.0 0.0 0.00 0.00 0.00 20 1011.4
20260502112030 22 0 0.0 9.7 0.00 0.00 0.00 20 1011.3
20260502111550 22 0 0.0 9.7 0.00 0.00 0.00 21 1011.3
20260502111030 21 0 0.0 6.4 0.00 0.00 0.00 21 1011.2
20260502110530 21 0 0.0 6.4 0.00 0.00 0.00 21 1011.2
20260502110044 21 98 0.0 4.8 0.00 0.00 0.00 22 1011.1
20260502105531 21 113 0.0 4.8 0.00 0.00 0.00 22 1011.1
20260502105030 21 108 1.6 3.2 0.00 0.00 0.00 21 1011.2
20260502104548 22 0 0.0 0.0 0.00 0.00 0.00 21 1011.3
20260502104031 22 0 0.0 0.0 0.00 0.00 0.00 21 1011.4
20260502103531 22 0 0.0 0.0 0.00 0.00 0.00 21 1011.3
20260502103040 22 0 0.0 0.0 0.00 0.00 0.00 21 1011.2
20260502102533 22 0 0.0 0.0 0.00 0.00 0.00 20 1011.2
20260502102032 22 0 0.0 0.0 0.00 0.00 0.00 20 1011.2
20260502101612 22 0 0.0 0.0 0.00 0.00 0.00 20 1011.0
20260502101032 22 0 0.0 0.0 0.00 0.00 0.00 20 1011.0
20260502100530 22 0 0.0 3.2 0.00 0.00 0.00 20 1010.8
20260502091032 21 0 0.0 0.0 0.00 0.00 0.00 18 1010.7
20260502090530 21 0 0.0 0.0 0.00 0.00 0.00 18 1010.7
20260502090104 21 0 0.0 0.0 0.00 0.00 0.00 18 1010.8
20260502071030 23 0 0.0 0.0 0.00 0.00 0.00 14 1010.5
20260502070529 23 0 0.0 0.0 0.00 0.00 0.00 14 1010.3
20260502070055 23 0 0.0 0.0 0.00 0.00 0.00 14 1010.3
20260502065530 23 0 0.0 0.0 0.00 0.00 0.00 14 1010.2
20260502065031 24 0 0.0 0.0 0.00 0.00 0.00 14 1010.2
20260502064548 24 0 0.0 0.0 0.00 0.00 0.00 14 1010.2
20260502064029 24 0 0.0 0.0 0.00 0.00 0.00 14 1010.2
20260502063529 24 0 0.0 0.0 0.00 0.00 0.00 14 1010.4
20260502063042 24 0 0.0 0.0 0.00 0.00 0.00 14 1010.3
20260502062535 24 0 0.0 0.0 0.00 0.00 0.00 13 1010.2
20260502062032 24 0 0.0 0.0 0.00 0.00 0.00 14 1010.3
20260502061545 24 0 0.0 0.0 0.00 0.00 0.00 14 1010.3
20260502061030 24 0 0.0 0.0 0.00 0.00 0.00 13 1010.3
20260502060530 24 0 0.0 0.0 0.00 0.00 0.00 13 1010.3
20260502060052 24 0 0.0 0.0 0.00 0.00 0.00 13 1010.3
20260502055532 24 0 0.0 0.0 0.00 0.00 0.00 13 1010.3
20260502055034 24 0 0.0 0.0 0.00 0.00 0.00 13 1010.1
20260502054543 24 0 0.0 0.0 0.00 0.00 0.00 13 1010.2
20260502054029 24 0 0.0 0.0 0.00 0.00 0.00 13 1010.1
20260502053530 24 0 0.0 0.0 0.00 0.00 0.00 13 1010.1
20260502053049 24 0 0.0 0.0 0.00 0.00 0.00 13 1010.2
20260502052532 24 0 0.0 0.0 0.00 0.00 0.00 13 1010.1
20260502052032 24 0 0.0 0.0 0.00 0.00 0.00 12 1010.1
20260502051604 25 0 0.0 0.0 0.00 0.00 0.00 12 1010.0
20260502051030 25 0 0.0 0.0 0.00 0.00 0.00 12 1010.1
20260502050533 25 0 0.0 0.0 0.00 0.00 0.00 13 1010.0
20260502050047 25 0 0.0 0.0 0.00 0.00 0.00 13 1010.0
20260502045530 25 0 0.0 0.0 0.00 0.00 0.00 13 1009.9
20260502045031 25 0 0.0 0.0 0.00 0.00 0.00 13 1009.9
20260502044546 25 0 0.0 0.0 0.00 0.00 0.00 12 1009.8
20260502044030 25 0 0.0 0.0 0.00 0.00 0.00 12 1009.8
20260502043531 26 0 0.0 0.0 0.00 0.00 0.00 12 1009.8
20260502043044 26 0 0.0 0.0 0.00 0.00 0.00 12 1009.7
20260502042529 26 0 0.0 0.0 0.00 0.00 0.00 12 1009.7
20260502042029 26 0 0.0 0.0 0.00 0.00 0.00 12 1009.6
20260502041541 26 0 0.0 0.0 0.00 0.00 0.00 12 1009.5
20260502041030 26 0 0.0 0.0 0.00 0.00 0.00 11 1009.4
20260502040534 26 0 0.0 0.0 0.00 0.00 0.00 11 1009.4
20260502040056 26 0 0.0 0.0 0.00 0.00 0.00 11 1009.4
20260502035531 26 0 0.0 0.0 0.00 0.00 0.00 11 1009.3
20260502035030 27 0 0.0 0.0 0.00 0.00 0.00 11 1009.3
20260502034545 27 0 0.0 0.0 0.00 0.00 0.00 11 1009.2
20260502034032 27 0 0.0 0.0 0.00 0.00 0.00 11 1009.2
20260502033530 27 0 0.0 0.0 0.00 0.00 0.00 11 1009.1
20260502033044 27 0 0.0 0.0 0.00 0.00 0.00 10 1009.1
20260502032531 28 0 0.0 0.0 0.00 0.00 0.00 10 1009.0
20260502032030 28 0 0.0 0.0 0.00 0.00 0.00 10 1009.0
20260502031552 28 0 0.0 0.0 0.00 0.00 0.00 10 1009.0
20260502031031 28 0 0.0 0.0 0.00 0.00 0.00 10 1008.9
20260502030531 29 0 0.0 0.0 0.00 0.00 0.00 10 1008.8
20260502030047 29 0 0.0 0.0 0.00 0.00 0.00 10 1008.8
20260502025531 29 0 0.0 0.0 0.00 0.00 0.00 10 1008.7
20260502025029 29 0 0.0 0.0 0.00 0.00 0.00 10 1008.6
20260502024546 30 0 0.0 0.0 0.00 0.00 0.00 10 1008.6
20260502024031 30 0 0.0 0.0 0.00 0.00 0.00 10 1008.6
20260502023530 30 0 0.0 0.0 0.00 0.00 0.00 10 1008.6
20260502023059 30 0 0.0 0.0 0.00 0.00 0.00 10 1008.5
20260502022530 30 0 0.0 0.0 0.00 0.00 0.00 10 1008.5
20260502022030 30 0 0.0 0.0 0.00 0.00 0.00 10 1008.4
20260502021543 30 0 0.0 0.0 0.00 0.00 0.00 10 1008.4
20260502021030 30 0 0.0 0.0 0.00 0.00 0.00 10 1008.3
20260502020530 31 0 0.0 0.0 0.00 0.00 0.00 10 1008.3
20260502020059 31 0 0.0 0.0 0.00 0.00 0.00 10 1008.3
20260502015530 31 0 0.0 0.0 0.00 0.00 0.00 10 1008.2
20260502015030 31 0 0.0 0.0 0.00 0.00 0.00 10 1008.3
20260502014537 31 0 0.0 0.0 0.00 0.00 0.00 9 1008.2
20260502014031 31 0 0.0 0.0 0.00 0.00 0.00 9 1008.2
20260502013531 31 0 0.0 0.0 0.00 0.00 0.00 9 1008.2
20260502013100 31 0 0.0 0.0 0.00 0.00 0.00 9 1008.2
20260502012531 31 0 0.0 0.0 0.00 0.00 0.00 9 1008.2
20260502012030 31 0 0.0 0.0 0.00 0.00 0.00 9 1008.2
20260502011543 31 0 0.0 0.0 0.00 0.00 0.00 9 1008.2
20260502011031 31 0 0.0 0.0 0.00 0.00 0.00 9 1008.1
20260502010530 31 0 0.0 1.6 0.00 0.00 0.00 10 1008.2
20260502010042 32 0 0.0 1.6 0.00 0.00 0.00 10 1008.3
20260502005531 32 0 0.0 1.6 0.00 0.00 0.00 10 1008.3
20260502005031 32 0 0.0 1.6 0.00 0.00 0.00 10 1008.3
20260502004601 32 0 0.0 1.6 0.00 0.00 0.00 10 1008.3
20260502004029 32 0 0.0 1.6 0.00 0.00 0.00 10 1008.2
20260502003530 32 0 0.0 1.6 0.00 0.00 0.00 10 1008.4
20260502003050 32 0 0.0 0.0 0.00 0.00 0.00 10 1008.3
20260502002529 32 0 0.0 0.0 0.00 0.00 0.00 10 1008.3
20260502002029 32 0 0.0 6.4 0.00 0.00 0.00 10 1008.4
20260502001603 32 0 0.0 6.4 0.00 0.00 0.00 11 1008.3
20260502001031 32 0 0.0 1.6 0.00 0.00 0.00 10 1008.4
20260502000530 32 0 0.0 1.6 0.00 0.00 0.00 11 1008.5
20260502000043 32 0 0.0 1.6 0.00 0.00 0.00 11 1008.5
20260501235533 32 0 0.0 1.6 0.00 0.00 0.00 10 1008.5
20260501235030 32 0 0.0 1.6 0.00 0.00 0.00 11 1008.6
20260501234555 32 0 0.0 1.6 0.00 0.00 0.00 11 1008.5
20260501234030 32 0 0.0 1.6 0.00 0.00 0.00 11 1008.5
20260501233530 32 0 0.0 1.6 0.00 0.00 0.00 11 1008.5
20260501233054 32 0 0.0 0.0 0.00 0.00 0.00 11 1008.5
20260501232531 32 0 0.0 4.8 0.00 0.00 0.00 11 1008.6
20260501232033 32 0 0.0 6.4 0.00 0.00 0.00 12 1008.6
20260501231544 32 0 0.0 6.4 0.00 0.00 0.00 11 1008.6
20260501231029 32 0 0.0 3.2 0.00 0.00 0.00 10 1008.7
20260501230534 32 0 0.0 3.2 0.00 0.00 0.00 11 1008.7
20260501230044 32 0 0.0 3.2 0.00 0.00 0.00 11 1008.7
20260501225530 32 0 0.0 3.2 0.00 0.00 0.00 12 1008.8
20260501225032 32 0 0.0 3.2 0.00 0.00 0.00 12 1008.8
20260501224543 31 0 0.0 4.8 0.00 0.00 0.00 12 1008.9
20260501224032 31 0 0.0 6.4 0.00 0.00 0.00 12 1008.9
20260501223529 32 0 0.0 6.4 0.00 0.00 0.00 13 1009.0
20260501223044 32 0 0.0 1.6 0.00 0.00 0.00 12 1009.0
20260501222529 32 0 0.0 1.6 0.00 0.00 0.00 13 1009.1
20260501222032 32 0 0.0 6.4 0.00 0.00 0.00 14 1009.2
20260501221543 32 0 0.0 6.4 0.00 0.00 0.00 14 1009.2
20260501221030 32 0 0.0 6.4 0.00 0.00 0.00 14 1009.2
20260501220529 32 0 0.0 1.6 0.00 0.00 0.00 15 1009.3
20260501220116 32 0 0.0 1.6 0.00 0.00 0.00 15 1009.4
20260501215530 32 0 0.0 1.6 0.00 0.00 0.00 15 1009.5
20260501215033 32 0 0.0 3.2 0.00 0.00 0.00 15 1009.7
20260501214544 32 0 0.0 3.2 0.00 0.00 0.00 16 1009.7
20260501214029 32 0 0.0 1.6 0.00 0.00 0.00 16 1009.7
20260501213532 32 0 0.0 1.6 0.00 0.00 0.00 16 1009.8
20260501213043 31 0 0.0 1.6 0.00 0.00 0.00 15 1009.9
20260501212529 31 0 0.0 0.0 0.00 0.00 0.00 15 1009.9
20260501212031 31 0 0.0 0.0 0.00 0.00 0.00 15 1010.0
20260501211542 31 0 0.0 4.8 0.00 0.00 0.00 15 1010.1
20260501211031 31 0 0.0 4.8 0.00 0.00 0.00 14 1010.1
20260501210529 31 0 0.0 3.2 0.00 0.00 0.00 14 1010.2
20260501205530 30 0 0.0 3.2 0.00 0.00 0.00 15 1010.3
20260501205031 30 0 0.0 3.2 0.00 0.00 0.00 15 1010.5
20260501204545 30 0 0.0 4.8 0.00 0.00 0.00 16 1010.6
20260501204029 30 0 0.0 4.8 0.00 0.00 0.00 16 1010.6
20260501203530 30 163 0.0 1.6 0.00 0.00 0.00 16 1010.6
20260501203044 30 0 0.0 3.2 0.00 0.00 0.00 16 1010.7
20260501202529 30 0 0.0 4.8 0.00 0.00 0.00 17 1010.8
20260501202030 30 0 0.0 4.8 0.00 0.00 0.00 17 1010.9
20260501201545 30 121 0.0 4.8 0.00 0.00 0.00 16 1010.7
20260501201031 30 0 0.0 4.8 0.00 0.00 0.00 17 1010.9
20260501200530 30 242 0.0 3.2 0.00 0.00 0.00 17 1010.9
20260501200049 30 0 0.0 1.6 0.00 0.00 0.00 17 1010.9
20260501195532 30 0 0.0 0.0 0.00 0.00 0.00 17 1011.0
20260501195118 30 0 0.0 1.6 0.00 0.00 0.00 17 1011.1
20260501194546 30 0 0.0 3.2 0.00 0.00 0.00 18 1011.2
20260501194029 30 0 0.0 3.2 0.00 0.00 0.00 17 1011.3
20260501193547 29 0 0.0 3.2 0.00 0.00 0.00 18 1011.4
20260501193048 29 0 0.0 3.2 0.00 0.00 0.00 18 1011.4
20260501192531 29 0 0.0 3.2 0.00 0.00 0.00 18 1011.5
20260501192031 29 0 0.0 1.6 0.00 0.00 0.00 18 1011.6